Home   Weather   Fayetteville   Past weeks

Flag for USA Past Weather in Fayetteville, North Carolina, USA — Yesterday and Last 2 Weeks

Now
80 °F

Clear.


Feels Like: 84 °F
Forecast: 69 / 85 °F
Wind: 10 mph from South

Location: Fayetteville Regional Airport

Current Time: Apr 29, 2017 at 9:39:12 pm

Latest Report: Apr 29, 2017 at 8:53 pm


Visibility: 10 mi

Pressure: 30.13 "Hg

Humidity: 76%

Dew Point: 72 °F

Location of FayettevilleLocation

Past Weather in Fayetteville — Graph

°F

Fayetteville Temperature Yesterday

Maximum temperature yesterday: 92 °F (at 4:53 pm)
Minimum temperature yesterday: 73 °F (at 1:53 am)
Average temperature yesterday: 80 °F

High & Low Weather Summary for the Past Weeks

 TemperatureHumidityPressure
High92 °F (Apr 28, 4:53 pm)100% (Apr 15, 8:53 am)30.36 "Hg (Apr 15, 8:53 am)
Low57 °F (Apr 23, 8:53 pm)33% (Apr 16, 4:53 pm)29.54 "Hg (Apr 25, 4:53 am)
Average70 °F75%29.99 "Hg
* Reported Apr 14 7:53 pm — Apr 29 7:53 pm, Fayetteville, Weather by CustomWeather, © 2017

Note: Actual official high and low records may vary slightly from our data, if they occured in-between our weather recording intervals... More about our weather records

Advertising

Fayetteville Weather History for the Previous 24 Hours

Scroll right to see more
 ConditionsComfort  
Time TempWeatherWind HumidityBarometerVisibility
7:53 pm
Sat, Apr 29
83 °FSunny.10 mph72%30.12 "Hg10 mi
6:53 pm88 °FScattered clouds.13 mph54%30.11 "Hg10 mi
5:53 pm88 °FSunny.9 mph50%30.11 "Hg10 mi
4:53 pm89 °FPartly sunny.12 mph50%30.11 "Hg10 mi
3:53 pm89 °FPartly sunny.12 mph50%30.12 "Hg10 mi
2:53 pm89 °FPartly sunny.17 mph52%30.14 "Hg10 mi
1:53 pm88 °FPassing clouds.13 mph54%30.15 "Hg10 mi
12:53 pm87 °FPassing clouds.12 mph55%30.16 "Hg10 mi
11:53 am84 °FPassing clouds.6 mph61%30.18 "Hg10 mi
10:53 am83 °FSunny.12 mph65%30.19 "Hg10 mi
10:03 am81 °FScattered clouds.16 mph69%30.21 "Hg10 mi
9:20 am79 °FPartly sunny.13 mph77%30.21 "Hg10 mi
8:21 am77 °FScattered clouds.12 mph85%30.21 "Hg9 mi
7:53 am75 °FOvercast.7 mph90%30.20 "Hg7 mi
7:22 am74 °FFog.6 mph94%30.20 "Hg5 mi
6:53 am74 °FFog.5 mph94%30.17 "Hg5 mi
6:06 am74 °FPassing clouds.6 mph94%30.19 "Hg8 mi
4:53 am75 °FOvercast.6 mph90%30.14 "Hg8 mi
4:41 am76 °FMostly cloudy.7 mph88%30.15 "Hg8 mi
3:53 am76 °FPassing clouds.7 mph88%30.11 "Hg8 mi
2:53 am76 °FOvercast.8 mph91%30.10 "Hg8 mi
1:53 am76 °FOvercast.12 mph91%30.10 "Hg8 mi
12:53 am77 °FOvercast.12 mph90%30.11 "Hg8 mi
12:38 am77 °FPassing clouds.13 mph90%30.13 "Hg8 mi
11:53 pm
Fri, Apr 28
78 °FPassing clouds.10 mph87%30.09 "Hg8 mi
10:53 pm79 °FPassing clouds.9 mph88%30.09 "Hg9 mi
9:53 pm81 °FClear.12 mph82%30.07 "Hg10 mi
Weather by CustomWeather, © 2017

See weather overviewHow to use our weather pages